Regional Weather Roundup
Issued by NWS Upton, NY

Current Version | Previous Version | Text Only | Print | Product List | Glossary On
Versions: 1 2 3 4 5 6 7 8 9 10 11 12 13 14 15 16 17 18 19 20 21 22 23 24 25 26 27 28 29 30 31 32 33 34 35 36 37 38 39 40 41 42 43 44 45 46 47 48 49 50
000
ASUS41 KOKX 051205
RWROKX

REGIONAL WEATHER ROUNDUP
NATIONAL WEATHER SERVICE NEW YORK NY
700 AM EST THU MAR 05 2015

NOTE: "FAIR" INDICATES FEW OR NO CLOUDS BELOW 12,000 FEET WITH NO
SIGNIFICANT WEATHER AND/OR OBSTRUCTIONS TO VISIBILITY.

NYZ071-072-176-178-NJZ106-104-051300-
NEW YORK CITY METRO AREA


CITY           SKY/WX    TMP DP  RH WIND       PRES   REMARKS
CENTRAL PARK   LGT SNOW  31  29  92 NW6       30.06R VSB 3/4 WCI  25
LAGUARDIA APRT SNOW      34  28  80 NW8       30.03R VSB 1/2 WCI  27
KENNEDY INTL   LGT SNOW  34  30  85 NW9       30.04R VSB 1   WCI  27
NEWARK/LIBERTY LGT SNOW  33  31  92 NW7       30.04R VSB 3/4 WCI  27
BRNX BOT. GARD   N/A     32  32 100 NW3       30.04R
TETERBORO      LGT SNOW  32  30  92 NW5       30.03R VSB 3/4 WCI  27
$$

NYZ177-179-078>081-051300-
LONG ISLAND NEW YORK

CITY           SKY/WX    TMP DP  RH WIND       PRES   REMARKS
FARMINGDALE    LGT SNOW  33  31  92 N7        30.02R FOG     WCI  27
ISLIP          LGT SNOW  32  30  92 N10       29.99R VSB 1   WCI  24
SHIRLEY        LGT SNOW  32  30  92 N9        30.02R VSB 1   WCI  24
WESTHAMPTON    LGT SNOW  32  30  92 N7        30.02R VSB 3/4 WCI  26
MONTAUK POINT    N/A     32  30  92 N8        30.01R WCI  25
$$

NYZ052-065-067-051300-
HUDSON VALLEY

CITY           SKY/WX    TMP DP  RH WIND       PRES   REMARKS
WHITE PLAINS   SNOW      30  28  92 N16       30.00R VSB 1/2 WCI  19
NEWBURGH       CLOUDY    30  23  74 NE16      30.02R WCI  19
MONTGOMERY     CLOUDY    31  18  58 NW12      30.03R WCI  22
POUGHKEEPSIE   CLOUDY    29  15  56 N14G24    30.05R WCI  18
ALBANY         CLOUDY    24   6  46 NW15G23   30.09R WCI  11
$$

NJZ001-105-106-008-010-013-015-019>022-104-051300-
NEW JERSEY

CITY           SKY/WX    TMP DP  RH WIND       PRES   REMARKS
NEWARK/LIBERTY LGT SNOW  33  31  92 NW7       30.04R VSB 3/4 WCI  27
TETERBORO      LGT SNOW  32  30  92 NW5       30.03R VSB 3/4 WCI  27
CALDWELL       LGT SNOW  32  28  85 CALM      30.04R VSB 3/4
MORRISTOWN     LGT SNOW  32  30  93 CALM      30.04R
SOMERVILLE     SNOW      33  30  88 N5        30.02S VSB 1/2 WCI  29
SUSSEX         FLURRIES  31  20  63 N8        30.04R WCI  23
ANDOVER          N/A     30  24  78 N6        30.01R WCI  24
TRENTON        LGT SNOW  33  30  88 NW8       30.03R FOG     WCI  26
MILLVILLE      LGT RAIN N/A N/A N/A N14G23    30.02R
ATLANTIC CITY  MIX PCPN  35  33  92 N10       30.04R FOG     WCI  27
WRIGHTSTOWN    LGT SNOW  32  32  99 NW10      30.02R FOG     WCI  24
TOMS RIVER     MOCLDY    36  30  80 N7        30.03S WCI  30
BELMAR         CLOUDY    34  27  75 NW10      30.02R WCI  26
$$

PAZ047>061-062-071-051300-
EASTERN PENNSYLVANIA

CITY           SKY/WX    TMP DP  RH WIND       PRES   REMARKS
PHILADELPHIA   LGT SNOW  33  31  92 N5        30.07R VSB 1   WCI  29
ALLENTOWN      LGT SNOW  30  27  86 N8        30.05R VSB 3/4 WCI  23
SCRANTON       LGT SNOW  23  14  68 N17       30.06R WCI   9
$$

CTZ002-004>006-009-010-012-RIZ004-006-007-MAZ004-011-015-051300-
SOUTHERN NEW ENGLAND
 IN CT

CITY           SKY/WX    TMP DP  RH WIND       PRES   REMARKS
BRADLEY INTL   CLOUDY    32  13  45 N17       30.01R WCI  21
HARTFORD       FLURRIES  31  20  63 N12       30.02R WCI  22
DANBURY        LGT SNOW  25  19  78 N8        30.04R WCI  16
WTRBRY/OXFORD  CLOUDY    27  18  69 N16       29.99R VSB 1   WCI  14
BRIDGEPORT     LGT SNOW  31  30  96 NW9       30.02R VSB 1   WCI  23
MERIDEN        LGT SNOW  29  23  78 N12       30.03R WCI  19
NEW HAVEN      LGT SNOW  30  28  92 NW14G22   30.01R VSB 1   WCI  19
CHESTER        LGT SNOW  32  30  93 N13G18    29.99R VSB 3/4 WCI  22
GROTON         SNOW      30  29  96 N9        30.00R VSB 1/2 WCI  22
WILLIMANTIC    SNOW      30  28  92 N3        29.99R VSB 1/2

 IN RI

CITY           SKY/WX    TMP DP  RH WIND       PRES   REMARKS
PROVIDENCE     LGT SNOW  31  29  92 N5        29.99S VSB 3/4 WCI  26
BLOCK ISLAND   CLOUDY    30  28  93 N7        29.98S WCI  23
WESTERLY       LGT SNOW  31  30  96 NW5       30.00R VSB 3/4 WCI  26

 IN MA

CITY           SKY/WX    TMP DP  RH WIND       PRES   REMARKS
BOSTON         LGT SNOW  34  23  64 NW14      29.99R WCI  24
WORCESTER      LGT SNOW  28  21  75 N9        29.94R WCI  19
WESTFIELD      CLOUDY    30  13  49 N18G24    30.01R WCI  18
PROVINCETOWN   CLOUDY    30  28  93 NW8       29.98S VSB 3/4 WCI  23
NANTUCKET      LGT SNOW  33  30  88 N18       29.98R FOG     WCI  22
$$

ANZ330-335-338-340-345-350-353-355-051300-
COASTAL MARINE OBSERVATIONS


STATION/POSITION TIME  SKY/WX   TEMP    WIND        PRES    VSBY  WAVE
                                AIR SEA DIR/SP/G                  HT/PER
                 (UTC)          (F)     (DEG/KT/KT) (MB)    (MI)  (FT/S)
NY HARB ENTRANCE 1200            34 38  330/ 14/ 16 1015.8          4/10
4S FIRE IS       1200               32                N/A           4/ 9
20S FIRE ISLAND  1100               36              1015.9          4/10
23SW MTP         1100                                 N/A           5/ 9
HUDSON CANYON    NOT AVBL
EXECUTION ROCKS  NOT AVBL
WESTERN LI SOUND NOT AVBL
CENTRAL LI SOUND NOT AVBL
EASTERN LI SOUND NOT AVBL
ROBBINS REEF     1100            32     320/  5/  5 1015.5
$$


>>>>>>>>>>>>>>>>>>>>>>>>>>>> KEY <<<<<<<<<<<<<<<<<<<<<<<<<<<
>                                                          <
>     SKY/WX - SKY CONDITION/PRESENT WEATHER               <
>     TMP    - TEMPERATURE IN FAHRENHEIT                   <
>     DP     - DEWPOINT IN FAHRENHEIT                      <
>     RH     - RELATIVE HUMIDITY IN PERCENT                <
>     WIND   - DIRECTION AND SPEED IN MPH                  <
>     PRES   - MEAN SEA LEVEL PRESSURE IN INCHES OF HG     <
>     WCI    - WIND CHILL INDEX                            <
>     VSB    - VISIBILITY IN MILES                         <
>     HX     - HEAT INDEX                                  <
>     TC     - TEMPERATURE IN CELSIUS                      <
>     VRB    - VARIABLE WIND DIRECTION                     <
>                                                          <
>>>>>>>>>>>>>>>>>>>>>>>>>>>> KEY <<<<<<<<<<<<<<<<<<<<<<<<<<<





USA.gov is the U.S. government's official web portal to all federal, state and local government web resources and services.